Weather History for Tekamah, NE

Change the Weather History Date:

Wednesday, September 4, 2013

  Actual Average Record
Temperature  
Mean Temperature 76 °F -  
Max Temperature 87 °F 82 °F 99 °F (2012)
Min Temperature 66 °F 57 °F 39 °F (1974)
Cooling Degree Days 12    
Growing Degree Days 26 (Base 50)    
Moisture  
Dew Point 65 °F    
Average Humidity 75    
Maximum Humidity 90    
Minimum Humidity 46    
Precipitation  
Precipitation 0.00 in - - ()
Sea Level Pressure  
Sea Level Pressure 30.07 in    
Wind  
Wind Speed 4 mph (SSE)    
Max Wind Speed 8 mph    
Max Gust Speed -    
Visibility 10 miles    
Events      
Averages and records for this station are not official NWS values.
T = Trace of Precipitation, MM = Missing Value Source: NWS Daily Summary

Daily Weather History Graph

Daily Weather History Graph

Search for Another Location

Airport:

Trip Planner

Search our weather history database for the weather conditions in past years. The results will help you decide how hot, cold, wet, or windy it might be!

Date:

Astronomy

Sep. 04, 2013 Rise Set
Actual Time 6:53 AM CDT 7:52 PM CDT
Civil Twilight 6:25 AM CDT 8:20 PM CDT
Nautical Twilight 5:51 AM CDT 8:54 PM CDT
Astronomical Twilight 5:16 AM CDT 9:29 PM CDT
Moon 6:07 AM CDT (9/4) 7:12 PM CDT (9/4)
Length of Visible Light 13h 55m
Length of Day
12h 58m
Waning Crescent, 1% of the Moon is Illuminated
Sep 4
Waning Crescent
Sep 5
New
Sep 12
First Quarter
Sep 19
Full
Sep 26
Last Quarter

Hourly Weather History & Observations

Time (CDT) Temp. Heat Index Dew Point Humidity Pressure Visibility Wind Dir Wind Speed Gust Speed Precip Events Conditions
12:54 AM 69.1 °F - 64.9 °F 87% 30.01 in 10.0 mi SSE 5.8 mph - N/A   Clear
1:54 AM 68.0 °F - 64.9 °F 90% 30.01 in 10.0 mi South 3.5 mph - N/A   Clear
2:54 AM 68.0 °F - 64.9 °F 90% 30.02 in 10.0 mi South 3.5 mph - N/A   Clear
3:54 AM 68.0 °F - 64.9 °F 90% 30.03 in 10.0 mi Calm Calm - N/A   Clear
4:54 AM 68.0 °F - 64.0 °F 87% 30.04 in 10.0 mi Calm Calm - N/A   Clear
5:54 AM 68.0 °F - 64.0 °F 87% 30.05 in 10.0 mi Calm Calm - N/A   Clear
6:54 AM 66.9 °F - 63.0 °F 87% 30.07 in 10.0 mi ESE 4.6 mph - N/A   Mostly Cloudy
7:54 AM 68.0 °F - 64.0 °F 87% 30.10 in 10.0 mi SSW 3.5 mph - N/A   Overcast
8:54 AM 71.1 °F - 64.9 °F 81% 30.11 in 10.0 mi SSE 3.5 mph - N/A   Mostly Cloudy
9:54 AM 73.0 °F - 64.9 °F 76% 30.11 in 10.0 mi SSE 5.8 mph - N/A   Clear
10:54 AM 75.0 °F - 64.0 °F 69% 30.11 in 10.0 mi South 6.9 mph - N/A   Clear
11:54 AM 77.0 °F - 64.9 °F 66% 30.11 in 10.0 mi SSE 6.9 mph - N/A   Clear
12:54 PM 79.0 °F - 66.0 °F 64% 30.10 in 10.0 mi SSE 5.8 mph - N/A   Clear
1:54 PM 82.0 °F 84.5 °F 66.9 °F 60% 30.08 in 10.0 mi SE 8.1 mph - N/A   Clear
2:54 PM 84.0 °F 87.0 °F 68.0 °F 58% 30.07 in 10.0 mi South 5.8 mph - N/A   Clear
3:54 PM 84.9 °F 86.6 °F 64.9 °F 51% 30.06 in 10.0 mi SSE 5.8 mph - N/A   Clear
4:54 PM 87.1 °F 88.3 °F 64.0 °F 46% 30.05 in 10.0 mi SSE 6.9 mph - N/A   Clear
5:54 PM 84.0 °F 86.5 °F 66.9 °F 56% 30.05 in 10.0 mi SSE 4.6 mph - N/A   Clear
6:54 PM 80.1 °F 82.9 °F 69.1 °F 69% 30.05 in 10.0 mi SE 3.5 mph - N/A   Partly Cloudy
7:54 PM 77.0 °F - 66.0 °F 69% 30.06 in 10.0 mi ESE 4.6 mph - N/A   Scattered Clouds
8:54 PM 73.9 °F - 64.9 °F 73% 30.07 in 10.0 mi ESE 5.8 mph - N/A   Partly Cloudy
9:54 PM 72.0 °F - 66.9 °F 84% 30.08 in 10.0 mi SE 4.6 mph - N/A   Clear
10:54 PM 70.0 °F - 66.9 °F 90% 30.10 in 10.0 mi SW 4.6 mph - N/A   Overcast
11:54 PM 71.1 °F - 66.9 °F 87% 30.11 in 10.0 mi Calm Calm - N/A   Overcast